Wind_Speed
39 38 34 30 27 27 29 28 29 32 32 31 32 31 29 27 27 29 31 30 30 32 32 31 31 29 27 27 26 23 21 19 17 16 16 17 17 17 16 15 15 15 13 11 9 9 10 11 14 16 17 19 20 20 19 18 19 20 20 22 23 24 23 22 21 20 19 19 19 19 18 18 17 15 14 14 15 14 13 13 12 11 11 11 11 11
42 40 34 28 29 31 31 31 31 32 30 30 33 32 30 30 29 30 33 33 32 33 32 33 33 31 29 28 26 25 23 20 17 17 17 18 19 19 19 18 18 17 12 9 7 7 8 10 12 15 16 18 20 21 21 20 20 21 21 22 24 24 23 23 23 22 21 21 21 20 19 18 17 16 15 15 15 15 14 13 12 12 11 11 11 11
43 41 33 31 34 34 33 32 32 32 30 31 33 33 34 34 32 33 33 31 32 33 33 34 34 32 31 30 28 27 25 23 20 19 20 21 22 21 21 21 20 18 13 10 9 8 9 10 11 13 15 17 20 23 23 22 22 22 22 23 24 25 24 24 24 23 22 22 21 20 18 17 16 16 15 16 15 15 14 14 13 12 12 12 12 11
41 39 34 36 39 36 34 34 34 34 33 33 34 35 37 37 35 34 32 30 32 33 33 35 35 35 35 34 33 31 29 27 25 22 22 22 22 22 24 24 22 20 17 14 13 12 11 11 12 13 15 17 19 23 23 22 21 22 23 23 24 25 25 25 25 24 23 21 20 18 17 16 15 15 16 16 16 15 15 14 13 12 12 12 12 11
40 38 36 41 43 37 35 36 37 36 34 33 34 35 36 37 36 34 36 36 34 34 34 35 36 37 38 37 35 34 32 31 29 26 23 21 23 24 24 23 22 20 18 17 15 14 13 12 13 15 17 18 20 22 24 23 23 23 25 25 25 27 27 26 26 24 23 21 19 18 16 15 14 14 15 17 17 17 16 14 13 13 12 12 12 11
41 38 39 46 44 38 39 40 39 37 36 35 35 34 35 38 37 36 39 38 34 33 32 34 38 38 39 39 36 35 35 34 32 28 24 22 24 25 24 23 22 20 18 16 14 13 11 12 14 16 18 20 21 23 25 25 25 26 27 27 27 28 28 28 27 25 23 20 19 18 17 17 16 16 17 19 19 18 16 14 13 13 12 12 11 10
42 39 40 46 45 43 45 44 41 39 38 37 35 34 35 39 39 37 39 38 35 34 31 36 41 39 39 40 37 37 37 36 34 31 28 25 25 25 25 25 23 21 19 16 13 11 9 9 11 14 18 20 22 24 26 27 26 27 27 27 28 29 29 29 28 25 23 20 19 18 19 19 19 19 20 20 19 17 15 14 13 12 12 11 11 10
44 41 40 44 45 46 48 46 43 40 40 38 37 37 37 39 40 38 39 40 38 36 36 41 42 39 41 41 39 40 40 38 37 34 31 29 26 25 27 27 24 22 20 16 14 12 11 10 10 13 17 21 24 25 27 27 27 27 27 28 28 29 30 30 28 26 23 21 20 20 20 20 21 20 19 18 17 16 15 14 13 13 12 11 11 10
47 43 41 44 45 46 48 47 44 43 41 40 40 40 37 36 38 39 41 42 41 41 44 44 41 40 42 42 41 43 42 40 38 36 34 31 28 27 28 28 25 23 21 18 16 16 15 14 14 15 17 21 24 26 27 28 28 27 28 29 30 30 30 30 29 26 25 23 22 22 22 21 21 19 18 17 16 16 15 14 13 13 12 12 12 11
50 46 45 47 47 46 47 47 46 46 43 42 43 42 36 35 38 40 44 45 44 47 48 45 42 42 44 43 44 45 43 41 39 36 35 32 29 28 29 29 27 25 22 20 19 19 17 17 16 16 17 20 23 25 27 29 29 28 28 29 30 30 30 30 29 27 26 25 24 23 23 22 20 18 16 16 16 16 15 15 14 13 13 12 12 13
53 49 49 51 50 48 48 48 49 49 45 44 46 44 39 39 41 43 46 46 49 53 50 45 44 46 47 46 46 47 45 42 40 38 36 34 32 31 31 30 29 26 24 22 22 21 19 17 15 13 13 17 20 23 25 28 29 28 28 28 30 31 30 29 29 28 27 26 25 24 24 23 19 17 16 16 17 17 16 16 15 14 13 13 13 13
55 52 51 52 52 50 49 49 51 51 48 47 49 47 43 42 43 45 47 49 54 56 51 47 46 49 49 47 47 47 46 44 43 39 36 34 33 33 32 30 29 27 26 25 24 23 21 17 12 10 10 12 16 19 22 25 28 28 27 27 29 30 30 29 29 29 28 27 26 26 25 22 18 16 16 17 18 18 18 17 16 15 14 14 14 14
55 54 52 54 55 54 52 51 51 52 51 50 51 49 47 47 47 48 49 52 56 56 52 48 48 51 49 45 47 48 47 47 44 40 38 37 35 34 33 32 30 30 29 28 26 25 22 17 13 11 11 11 14 17 20 23 26 27 27 27 27 28 29 29 30 30 29 29 28 27 25 22 19 18 18 18 19 19 18 18 16 16 16 15 15 14
54 55 55 57 58 57 54 52 52 53 53 53 53 52 51 51 51 50 50 52 54 54 53 50 49 53 49 44 46 49 48 47 44 41 41 40 38 37 35 33 32 32 33 31 29 27 23 18 15 14 14 13 14 18 21 23 25 27 27 27 26 27 29 30 30 31 31 30 30 29 27 23 20 20 19 19 19 19 18 18 17 17 16 15 14 13
51 55 56 58 59 58 56 54 53 52 53 55 55 53 54 54 53 51 50 50 52 54 54 52 52 54 51 44 43 45 45 44 43 43 44 43 40 38 36 35 34 34 35 33 30 29 25 20 18 17 16 15 15 17 21 23 26 28 28 27 27 27 28 30 31 31 32 32 32 31 28 24 22 22 20 19 19 18 18 18 18 18 17 16 14 13
47 52 57 60 60 60 58 56 55 55 55 56 56 56 56 56 54 51 50 50 51 53 55 56 56 55 53 45 38 37 40 42 43 44 44 44 41 38 38 36 35 36 36 34 31 30 27 23 22 21 19 17 15 15 18 21 25 28 30 29 28 27 28 30 32 32 33 33 33 32 29 26 25 23 21 19 18 18 18 18 18 18 18 16 15 14
43 47 56 61 60 61 61 59 58 57 55 55 58 60 56 53 54 53 52 51 53 55 56 57 57 54 54 47 36 33 36 40 44 43 43 43 41 40 39 36 35 37 36 34 32 31 28 26 23 22 20 18 16 14 16 20 24 28 31 31 30 29 29 31 32 33 34 34 34 33 31 28 26 25 23 21 19 19 19 19 19 19 18 17 16 16
39 43 53 58 58 61 62 61 60 58 55 52 53 57 56 54 54 55 54 53 56 57 56 57 57 54 52 47 38 33 33 38 42 42 41 42 42 41 39 37 37 38 37 35 33 32 30 27 25 23 22 19 17 15 16 19 24 28 31 32 31 30 30 30 32 34 35 35 34 33 32 29 28 27 26 24 22 20 20 20 20 20 19 18 18 18
38 40 47 52 54 58 61 61 61 60 59 54 49 50 56 58 57 58 59 58 59 59 57 57 58 56 51 45 42 37 32 34 40 41 41 41 42 42 39 37 38 38 38 36 34 33 31 29 27 25 24 22 20 18 17 18 22 27 31 33 32 31 31 32 34 35 36 36 35 34 33 31 30 29 27 25 23 20 20 21 22 21 21 20 20 20
39 39 43 48 51 54 58 60 61 61 60 60 56 52 54 57 57 59 60 59 59 59 58 57 58 58 52 44 43 40 33 33 37 40 41 41 42 42 40 38 39 39 40 37 35 33 32 30 29 26 25 24 22 20 19 18 20 25 30 33 32 32 33 34 35 36 36 37 36 35 34 33 32 31 29 26 23 22 22 23 23 23 23 22 22 22
41 41 43 46 50 52 53 56 60 61 58 59 63 61 57 54 53 56 60 60 60 60 59 57 56 56 52 44 43 40 34 33 36 38 41 43 43 42 40 39 40 41 41 40 37 34 33 32 31 28 27 27 26 24 22 21 20 24 30 33 33 32 32 33 33 35 36 37 37 36 35 34 34 32 30 28 25 23 23 24 24 24 24 23 23 23
43 44 44 47 51 50 47 51 57 59 56 56 61 64 62 55 49 54 62 63 62 62 61 59 56 54 51 45 42 41 36 35 37 39 41 43 44 43 41 41 41 42 43 42 39 36 34 34 33 31 30 30 30 27 24 22 21 23 28 32 34 32 31 32 32 33 35 36 36 36 35 35 35 34 32 30 27 25 24 24 24 25 24 24 24 24
45 45 45 46 51 49 45 48 56 61 61 61 62 63 63 58 51 53 60 63 63 63 62 61 58 57 53 46 41 40 38 37 38 40 42 43 43 43 42 42 42 43 43 42 40 38 36 35 35 35 33 33 32 29 26 24 22 22 26 31 34 33 31 31 32 33 34 34 34 35 35 35 35 35 34 32 29 27 25 25 25 25 25 25 25 25
46 46 46 45 48 49 45 46 53 58 61 64 64 63 61 59 54 52 57 63 65 64 62 62 63 60 53 46 41 37 36 38 40 41 43 44 44 44 43 43 43 43 42 41 41 40 38 37 38 37 35 34 33 32 29 27 24 23 25 30 34 34 33 32 32 33 33 33 33 35 35 35 35 35 35 33 31 29 27 27 26 26 25 26 25 25
49 48 48 46 47 48 46 46 50 54 59 63 63 62 63 62 60 61 64 66 68 67 61 57 59 61 56 47 40 36 35 38 40 41 43 45 46 46 46 45 45 43 42 41 41 40 39 39 39 37 35 33 34 33 31 29 27 25 25 28 32 35 35 34 33 32 32 32 33 34 34 34 34 35 35 34 33 31 30 28 27 26 26 26 26 26
51 51 51 49 49 48 45 47 50 50 54 58 59 62 67 66 65 68 69 68 69 69 65 55 46 48 54 51 41 35 36 37 39 42 44 45 46 47 47 46 46 44 43 41 40 40 40 39 38 36 35 34 33 33 32 30 29 27 26 27 31 35 36 36 34 33 32 32 33 32 32 32 33 35 35 35 35 33 32 30 28 28 27 27 27 27
53 53 52 51 51 49 46 48 51 48 49 56 61 67 70 69 68 68 69 70 70 67 68 64 49 41 49 53 43 36 37 37 37 41 44 46 48 49 49 48 47 46 44 42 41 41 40 39 38 36 35 33 33 33 33 32 31 30 28 27 29 34 36 37 36 35 34 33 32 31 31 31 32 34 35 36 36 35 33 31 30 29 29 28 28 28
53 53 53 53 53 51 50 50 52 51 51 57 66 71 72 70 70 70 70 71 71 69 68 67 61 54 54 52 45 40 40 39 39 42 46 50 52 53 52 52 51 49 48 46 45 43 41 39 38 35 33 33 34 34 34 33 33 32 30 28 29 32 35 37 37 36 35 34 33 31 31 31 32 34 35 36 36 35 34 32 32 31 30 30 29 28
52 53 53 55 55 54 53 52 52 52 53 56 64 69 71 71 71 71 71 71 72 74 70 64 64 63 57 52 48 44 42 41 41 44 50 53 54 55 55 54 53 51 50 48 46 44 42 41 40 37 34 34 35 35 34 34 34 33 32 30 29 29 32 36 37 37 37 36 33 32 32 33 33 34 35 36 36 35 35 34 33 32 31 30 30 29
50 52 54 56 57 56 54 52 52 52 52 55 61 66 69 71 71 71 72 73 72 74 71 66 67 63 54 51 49 44 41 41 40 42 48 53 55 56 56 56 55 53 52 50 47 46 44 43 42 39 36 36 36 36 35 34 33 33 32 31 29 28 29 33 36 37 37 36 34 34 34 34 34 34 35 35 35 35 35 35 34 33 32 30 30 31
45 50 54 57 59 58 54 53 54 53 51 53 58 64 67 69 71 71 72 73 73 73 72 70 70 64 55 51 48 44 41 41 40 40 45 51 55 56 57 58 57 56 55 53 51 49 47 46 44 41 38 38 38 37 36 35 33 33 33 32 31 30 29 30 33 36 37 37 36 36 36 36 35 35 35 35 35 36 36 36 35 34 33 32 31 32
39 45 51 55 58 59 56 54 55 54 53 53 57 62 66 68 70 71 71 71 72 73 72 71 71 66 57 52 48 45 44 42 41 42 45 50 55 56 58 60 59 58 57 55 53 52 51 49 46 43 40 39 38 37 37 37 36 35 34 33 32 32 31 30 30 33 36 37 38 38 38 37 37 36 35 35 35 36 36 36 36 35 34 33 32 32
35 38 43 49 54 57 57 56 54 53 55 56 57 60 65 68 69 69 70 70 71 70 67 67 70 66 58 53 49 46 45 44 43 43 44 49 54 57 58 60 60 59 58 56 55 54 52 50 48 45 42 40 38 36 36 37 37 35 33 33 34 34 33 32 31 32 34 36 38 38 38 38 37 37 36 35 35 36 37 37 36 35 34 33 33 33
34 35 37 41 47 52 56 57 53 50 53 56 55 55 60 66 67 66 69 70 69 67 64 64 68 66 59 55 50 47 46 44 42 43 43 46 51 56 58 59 60 60 59 58 56 54 53 51 48 45 43 41 38 36 35 36 37 35 34 35 35 35 34 34 34 33 34 34 35 38 39 38 37 36 36 36 36 37 37 36 36 35 34 34 34 33
34 34 34 36 39 43 49 54 53 51 51 49 48 49 53 61 64 65 70 71 68 67 66 64 66 65 59 55 50 48 47 44 41 42 43 44 47 52 56 58 59 59 58 57 56 56 55 52 49 47 44 41 38 37 37 38 37 37 37 36 36 35 35 35 35 35 34 34 34 36 37 37 37 37 36 36 37 37 37 36 36 35 34 34 34 33
33 33 33 33 35 36 41 48 52 51 48 44 47 49 49 55 64 69 71 71 67 66 67 66 66 65 60 55 52 49 48 46 41 40 41 43 45 49 53 56 57 58 57 57 57 57 55 52 49 48 45 42 41 39 38 38 38 38 38 37 36 36 36 35 36 36 35 34 34 34 35 36 36 37 37 36 36 35 35 36 36 35 34 34 34 33
31 32 32 32 33 34 36 41 44 46 46 46 50 52 50 54 65 71 71 70 67 65 66 66 67 65 59 56 53 50 48 47 42 39 42 45 46 46 49 52 56 57 56 56 57 56 55 53 50 49 46 43 42 40 38 38 39 38 38 38 37 37 37 36 36 36 35 34 34 33 33 33 34 36 36 36 35 33 33 34 36 36 35 34 34 33
28 30 31 32 32 32 35 38 40 43 46 46 48 53 54 55 62 67 69 68 68 65 63 64 66 64 59 57 54 50 48 46 42 41 44 45 43 43 45 48 53 56 56 57 56 54 53 53 51 49 48 45 43 41 40 40 39 38 38 39 39 38 37 36 36 36 34 33 33 33 32 32 33 34 36 35 34 32 32 33 35 35 35 34 33 31
30 29 30 32 32 31 34 38 40 42 44 43 44 49 55 57 60 65 66 64 65 64 62 63 64 62 59 57 54 51 48 44 43 44 45 43 40 41 43 46 49 54 56 57 54 52 51 51 51 51 50 48 45 44 43 43 40 39 40 41 40 38 36 34 35 35 33 33 33 32 32 32 32 33 35 34 33 32 32 33 34 34 34 33 32 31
32 30 31 32 32 32 34 37 39 40 43 43 43 46 52 56 59 64 66 64 63 63 61 61 61 60 59 58 54 51 48 45 44 45 43 40 40 41 42 44 48 51 54 53 51 50 49 50 52 52 51 49 48 47 47 45 42 42 43 44 42 38 35 34 35 34 33 34 34 33 32 32 32 32 33 34 33 33 32 33 33 33 32 31 31 30
33 32 31 32 32 32 34 37 38 40 42 44 43 43 48 53 57 64 68 66 64 62 59 58 59 59 58 58 54 51 48 46 45 44 42 40 40 41 41 44 47 48 47 45 44 44 45 46 48 48 48 48 48 49 50 48 46 46 47 44 41 38 35 34 35 34 34 34 34 32 31 31 31 32 33 33 33 33 32 32 32 31 30 30 30 29
27 31 32 32 32 31 33 36 39 40 40 41 41 41 45 51 56 63 68 66 64 63 59 55 57 59 58 57 55 52 49 48 47 44 42 40 40 41 42 43 43 41 40 38 37 38 39 40 41 42 44 45 46 47 50 51 50 50 48 43 39 37 36 36 36 35 34 34 32 31 30 30 30 31 32 33 33 32 31 31 31 30 30 29 29 28
18 25 30 31 31 32 34 37 38 39 39 38 39 40 45 51 55 59 65 65 62 62 60 55 55 58 58 57 55 52 50 49 48 45 42 41 42 42 41 40 38 37 36 35 35 35 35 34 35 36 39 42 43 45 48 51 52 50 46 41 38 37 37 37 35 34 33 32 31 29 29 28 29 30 31 32 31 31 30 30 30 29 29 28 28 28
16 22 27 29 31 33 35 35 35 35 36 38 39 40 44 51 53 54 61 66 63 59 59 57 54 56 58 57 55 53 51 50 49 46 43 43 44 43 40 39 38 37 36 35 35 35 33 31 31 34 37 39 41 43 47 49 49 46 42 38 38 38 37 35 33 32 31 30 29 28 28 28 29 30 31 31 31 30 29 29 29 28 28 28 28 28
14 19 23 25 29 33 34 34 35 36 36 37 39 40 43 51 54 53 57 64 64 58 56 57 56 55 56 57 55 52 52 51 49 47 46 46 45 44 41 40 39 39 38 36 35 35 32 29 30 32 33 35 38 41 44 46 44 40 37 36 36 36 35 33 31 29 29 30 29 28 28 28 29 29 30 30 30 29 28 28 28 27 27 27 27 27
10 14 16 20 25 30 32 34 36 37 37 36 37 39 43 50 55 54 53 57 63 61 56 56 57 55 54 55 55 52 51 52 51 49 49 48 47 45 43 42 42 41 40 38 36 34 32 30 29 30 31 34 37 39 40 41 40 36 34 34 35 35 34 32 29 28 29 30 29 28 27 28 29 29 29 29 29 29 29 29 28 28 27 27 27 27
11 15 15 17 22 26 31 35 36 37 36 36 36 39 44 50 55 57 53 51 56 61 59 56 56 55 53 53 53 51 52 53 53 51 51 51 49 47 45 45 45 43 41 39 36 34 32 31 30 31 34 37 38 38 38 38 36 35 35 35 35 36 34 31 29 29 30 30 30 29 29 30 30 30 30 30 30 30 30 30 29 29 29 28 28 28
9 12 15 18 20 22 26 30 31 32 32 33 35 40 46 50 53 55 54 51 50 55 57 57 56 54 52 51 52 52 52 53 54 53 53 53 51 49 47 48 48 46 44 41 38 34 32 32 32 34 36 39 39 38 37 37 36 35 35 36 37 37 35 32 31 32 33 33 33 32 31 30 30 30 30 30 31 31 31 30 30 30 29 30 30 29
10 12 16 19 20 19 21 23 24 25 28 32 37 42 46 49 51 51 50 50 49 48 52 56 57 54 51 50 52 52 52 53 55 55 55 55 53 51 51 52 51 49 45 44 41 37 34 34 35 36 38 38 38 38 38 37 36 36 34 34 36 38 37 35 34 35 35 35 35 34 32 32 32 31 31 31 32 32 32 32 31 31 31 31 31 31
13 14 16 20 21 20 20 21 20 21 26 31 37 41 44 47 49 49 47 49 49 47 48 53 57 55 51 51 53 52 50 53 57 57 57 58 55 53 54 55 54 50 47 45 44 40 36 34 35 37 39 39 39 39 38 37 36 34 32 32 34 38 40 40 37 37 37 38 38 37 35 34 34 34 33 33 34 34 34 34 34 33 33 33 33 33
14 16 16 18 21 22 22 21 20 19 24 31 36 39 41 43 45 46 46 47 49 47 46 49 54 55 51 51 53 51 48 51 56 59 60 60 57 55 56 57 55 52 48 46 45 43 39 36 35 37 39 40 40 39 38 37 34 32 30 31 33 37 40 41 40 39 39 41 42 41 39 38 37 37 37 37 36 36 36 37 36 36 35 35 34 34
Wind_Direction
235 234 230 229 229 231 233 231 231 233 232 232 233 232 231 230 224 220 223 219 211 214 215 213 217 222 220 216 218 214 206 211 223 227 230 230 225 218 212 208 210 213 214 223 234 240 240 234 226 217 206 198 192 188 188 187 186 185 184 183 181 177 173 172 171 169 170 171 172 174 175 173 171 172 171 170 168 166 165 159 153 149 145 141 140 141
235 235 231 227 227 227 228 228 229 231 229 228 231 232 232 232 228 225 226 222 215 214 215 214 216 221 224 221 219 216 211 211 218 226 228 224 220 216 214 211 212 215 214 222 241 247 244 240 234 223 212 202 194 190 188 187 187 186 185 186 184 181 178 176 174 174 176 177 178 179 177 174 173 172 171 170 169 167 165 160 155 151 147 143 143 144
235 235 230 227 227 226 226 226 228 230 227 224 225 226 229 231 229 228 228 224 221 218 215 216 216 217 223 224 222 219 215 211 211 219 225 221 218 215 214 213 213 213 211 215 226 233 231 228 227 222 214 206 197 193 190 188 188 186 186 187 186 185 183 181 178 178 181 182 182 181 179 176 173 171 169 168 168 168 166 162 157 154 151 148 148 149
237 234 228 228 229 226 225 226 227 229 226 223 222 220 222 227 228 229 231 229 226 223 218 219 218 215 219 222 221 219 216 213 208 212 221 220 218 218 217 217 216 210 203 206 213 220 222 217 217 215 210 206 200 196 193 189 189 188 187 187 187 188 187 185 183 183 185 185 183 182 180 177 174 171 169 168 168 169 169 165 161 158 155 153 153 156
237 232 226 228 228 225 225 226 226 227 226 226 225 221 219 224 226 227 232 231 228 225 220 220 221 215 217 221 221 217 216 216 211 209 215 219 220 223 224 225 225 217 206 204 207 212 216 211 209 209 206 202 197 196 194 190 189 190 189 188 188 189 188 188 188 187 187 186 182 181 180 177 175 174 172 172 172 172 173 169 163 161 158 156 155 161
235 230 226 229 227 222 225 226 225 226 225 226 226 224 220 222 223 224 231 233 230 229 224 224 225 217 215 221 221 217 214 216 215 211 209 215 221 225 227 230 232 227 217 211 208 210 215 215 212 208 205 201 195 195 195 192 191 191 191 191 190 190 190 190 190 189 187 184 180 179 179 178 176 178 179 179 177 175 173 169 165 163 160 156 155 162
232 229 227 230 227 220 223 224 223 224 224 223 223 224 222 221 220 220 228 233 232 232 232 230 226 216 214 219 220 219 215 215 217 214 209 211 218 223 226 229 231 230 223 215 207 208 216 223 223 215 207 202 197 195 196 195 193 192 192 193 192 191 191 192 191 189 186 182 179 179 180 179 180 183 185 183 179 174 170 167 166 164 160 155 154 161
231 228 226 231 229 224 223 223 222 222 223 223 222 222 222 221 219 216 222 230 230 229 232 230 222 214 214 216 217 220 217 214 215 215 212 211 213 218 224 228 229 229 226 217 204 203 207 210 216 217 211 205 200 197 196 196 196 194 193 194 194 193 193 193 192 188 185 182 180 181 181 182 186 189 187 182 178 172 169 169 168 164 160 158 156 163
230 226 225 229 230 227 226 224 222 222 222 222 221 221 221 222 220 217 218 224 227 228 229 230 223 216 215 214 215 218 216 214 215 215 215 213 210 213 220 225 227 225 224 218 206 205 207 204 206 209 210 208 204 200 196 196 197 196 195 196 196 195 195 195 193 189 185 182 182 182 183 187 192 193 189 183 178 173 171 171 168 165 163 161 162 167
228 224 223 225 227 226 225 224 222 222 221 221 221 220 220 222 220 218 218 220 223 225 224 226 226 221 216 213 215 217 216 215 215 215 217 215 210 209 216 222 224 222 221 217 211 211 212 211 211 210 209 208 207 204 199 197 198 198 196 197 197 197 196 196 194 191 187 184 184 185 187 192 195 194 189 184 181 178 177 174 170 168 167 166 167 170
227 222 221 224 225 224 224 222 221 221 219 220 222 219 218 221 219 218 219 219 222 223 218 218 225 227 217 210 213 215 214 216 216 215 217 217 212 208 212 219 221 220 218 216 214 215 216 216 216 218 216 212 209 207 204 200 199 199 198 199 199 199 197 195 194 193 189 186 187 189 192 196 196 191 188 186 183 183 182 179 176 172 170 171 171 172
227 223 221 224 224 223 222 221 220 220 218 219 222 219 217 220 220 219 219 219 223 225 220 214 220 228 219 208 211 214 213 215 217 215 216 219 215 209 210 216 219 220 218 216 217 217 218 214 211 220 226 220 214 209 207 205 202 201 200 200 202 201 198 195 194 194 191 189 190 193 197 197 192 186 186 187 187 187 185 182 179 175 174 175 175 175
227 223 220 223 224 222 221 220 219 219 217 218 221 219 217 219 220 220 219 221 225 228 225 218 218 226 221 208 210 214 212 214 215 213 214 217 216 210 208 212 217 218 217 217 219 220 219 212 204 211 219 218 213 208 206 206 204 203 201 202 203 203 200 197 194 193 193 192 193 197 199 196 186 182 186 189 190 190 187 183 179 178 179 180 178 176
226 223 220 222 223 221 220 219 219 218 218 219 220 219 218 219 220 220 219 222 227 229 229 223 221 227 225 212 210 212 211 212 213 213 214 215 214 209 207 210 214 216 216 215 218 221 220 214 207 208 213 213 211 208 205 203 202 203 202 202 203 203 202 199 195 194 194 194 197 199 200 194 184 184 189 192 193 193 189 185 182 181 182 183 181 176
225 224 221 221 223 221 219 219 219 218 218 219 220 220 220 220 220 220 220 223 227 231 232 228 224 228 229 219 212 210 209 210 212 213 214 215 213 208 206 208 210 213 215 214 216 220 221 218 213 209 212 213 213 212 208 204 201 201 201 202 202 202 202 200 198 196 195 196 199 201 201 194 187 188 192 194 195 195 191 188 185 184 185 185 182 178
224 224 222 221 222 221 218 217 217 217 217 218 219 220 220 221 221 221 221 223 227 231 233 231 227 227 230 225 213 208 207 208 211 212 212 214 212 208 207 207 208 211 214 215 216 219 221 222 219 214 212 212 212 214 213 209 205 202 201 201 201 200 201 201 200 198 197 198 201 202 202 197 191 192 195 196 196 196 194 191 188 186 187 185 182 180
226 225 222 220 221 221 218 217 216 216 216 218 220 220 219 221 222 222 223 224 227 230 232 234 232 229 231 229 218 208 205 208 212 212 211 212 210 208 207 206 206 210 214 215 216 218 221 224 223 219 217 214 210 213 216 213 209 205 202 202 201 199 200 200 200 200 200 200 201 203 203 200 196 196 198 197 196 195 194 193 192 189 187 185 182 182
229 227 223 220 222 223 219 217 216 216 215 216 220 220 219 220 221 221 222 223 227 230 231 235 236 232 230 230 224 215 207 208 214 213 211 212 211 209 207 204 205 209 213 215 216 218 220 223 223 221 220 218 211 211 215 215 212 208 205 203 202 200 199 200 201 203 203 203 202 203 203 202 200 200 201 200 198 194 192 194 194 191 189 187 184 184
232 231 227 224 225 224 221 219 218 216 214 214 217 218 218 220 221 220 220 220 224 228 230 234 237 233 228 225 225 220 208 207 214 214 212 212 212 211 207 204 206 209 213 215 216 218 219 221 223 222 221 221 216 211 213 215 215 211 207 206 204 202 200 200 202 203 204 205 204 204 203 202 202 203 204 203 200 194 192 195 195 193 191 189 187 187
234 232 230 228 228 225 222 221 219 217 214 213 215 216 216 218 220 221 221 221 223 227 230 234 237 235 228 222 223 220 207 206 213 214 212 212 213 212 208 205 207 210 214 215 216 218 219 221 224 225 224 225 223 217 215 217 217 214 210 207 206 205 204 204 204 204 205 206 206 205 203 202 203 204 205 205 202 197 195 196 197 196 194 191 189 190
234 232 230 231 230 226 224 223 220 218 217 215 215 216 216 216 218 220 220 220 223 226 230 232 236 237 231 222 222 220 207 206 213 213 210 210 212 212 209 208 209 212 215 217 217 218 219 221 225 226 226 227 227 223 217 216 216 214 212 208 207 208 207 208 208 208 208 208 208 206 204 203 202 203 205 206 203 200 198 198 199 199 197 194 193 194
233 231 229 230 230 227 226 224 220 218 218 216 216 217 218 217 216 218 219 218 220 224 228 231 234 237 232 221 220 221 210 204 210 212 210 210 211 211 210 210 211 213 215 218 219 220 220 222 225 227 228 230 232 229 223 220 218 217 213 209 208 209 209 210 210 210 212 212 211 210 207 205 203 203 205 205 204 203 201 200 201 202 200 198 198 198
233 232 229 230 230 228 227 226 221 218 218 216 214 215 217 219 218 219 220 219 220 223 227 230 232 234 230 220 217 221 215 206 206 210 210 209 210 211 211 212 213 213 215 217 219 221 221 223 224 226 227 231 234 234 230 227 223 221 216 211 209 208 209 211 212 213 214 214 214 214 212 209 206 205 205 205 204 203 202 202 204 204 203 203 202 202
233 232 230 228 229 229 229 228 224 220 219 218 215 213 215 217 217 218 218 219 220 221 225 230 232 232 229 220 216 218 217 210 207 209 209 207 207 208 209 211 212 213 215 217 219 220 221 222 224 226 227 229 232 234 233 231 227 224 220 215 211 208 208 210 212 215 216 216 216 216 215 213 210 210 208 207 205 204 204 205 205 205 206 206 206 205
232 230 228 226 226 227 228 229 227 223 220 218 217 215 213 213 215 217 217 217 218 219 222 227 232 233 229 222 216 216 217 213 207 207 209 207 206 206 205 208 210 211 213 216 218 220 221 222 224 227 229 229 230 232 234 233 231 228 224 219 214 211 210 211 212 215 217 217 218 218 218 216 215 214 212 210 209 206 206 207 207 207 208 208 208 209
231 229 227 224 223 223 224 226 226 224 220 217 218 219 215 211 214 217 217 219 219 219 221 223 227 230 227 222 215 214 217 212 205 205 207 207 207 206 205 207 209 210 212 215 218 221 222 223 224 225 228 228 228 230 233 234 233 232 229 224 218 214 213 212 212 214 216 218 219 219 219 219 218 217 216 215 213 210 209 208 208 209 210 210 210 212
230 228 226 224 222 220 221 223 223 222 219 216 216 219 217 212 213 215 217 219 219 219 222 224 224 224 223 219 214 213 216 212 204 203 204 205 205 206 206 207 208 209 210 212 216 219 223 226 226 225 225 226 226 227 230 232 233 233 231 229 224 219 217 215 214 215 216 218 219 219 219 219 219 220 219 218 217 216 213 211 210 211 211 212 212 213
231 228 226 224 222 221 222 223 222 220 218 216 217 218 217 213 213 214 216 218 219 219 221 224 226 225 222 219 212 210 214 212 204 201 201 202 204 205 206 207 208 209 209 210 214 217 219 224 228 227 225 223 223 225 228 230 232 232 231 230 229 224 221 219 217 217 218 219 219 219 219 220 219 220 221 221 221 220 218 216 214 214 214 214 214 215
233 229 226 224 222 221 221 223 223 222 219 219 218 218 217 215 213 213 215 216 218 219 219 221 225 224 221 218 213 210 213 212 206 202 201 202 204 204 206 208 209 210 210 211 214 216 218 222 226 227 224 222 221 222 225 229 230 232 232 231 231 229 226 223 221 220 220 221 219 219 220 220 219 220 221 222 223 223 222 220 219 218 217 217 217 217
235 231 229 227 223 221 221 221 223 223 221 220 219 218 218 217 215 213 214 216 218 219 218 220 225 223 216 215 213 209 212 215 211 206 203 203 205 205 206 208 210 211 212 212 214 217 218 221 225 226 224 222 220 218 220 224 228 232 233 232 233 234 232 229 226 223 223 222 221 221 221 221 221 221 221 222 223 224 224 224 223 222 222 221 221 221
236 233 231 229 226 222 221 221 222 222 222 220 219 218 217 217 216 215 214 216 217 219 218 220 225 223 216 213 211 207 210 214 213 210 204 203 206 206 206 208 210 211 212 213 214 216 217 219 223 225 224 222 221 218 216 218 223 227 230 231 232 235 236 235 232 228 225 224 223 222 223 223 222 222 223 222 223 224 225 226 226 226 225 225 225 225
233 232 231 230 228 224 221 221 222 221 222 220 218 217 217 216 216 216 215 216 217 219 219 219 224 224 216 211 210 207 208 211 212 211 205 202 205 206 208 210 211 212 213 214 214 215 216 217 221 223 222 221 221 219 216 216 219 222 225 228 231 234 237 238 237 234 229 226 224 224 224 224 224 223 224 223 223 225 226 226 227 228 228 228 228 229
226 226 227 228 227 224 220 219 219 220 222 220 216 215 216 216 216 216 217 216 216 218 220 220 223 222 214 210 210 208 209 210 212 212 207 203 204 206 208 210 212 214 215 216 216 216 215 217 219 220 218 218 219 219 218 218 219 219 221 225 229 233 236 238 239 238 235 230 227 226 226 227 226 226 225 225 225 226 226 227 228 229 230 230 230 230
221 219 220 222 223 221 219 218 218 219 221 219 216 215 216 216 216 217 219 217 215 217 219 220 223 221 213 209 210 209 209 210 211 213 212 207 206 206 207 210 212 214 216 216 216 216 216 217 218 217 216 215 217 218 218 218 217 217 219 221 225 230 233 237 238 239 239 236 231 229 229 228 228 228 228 228 227 227 228 228 229 229 230 230 231 231
219 217 216 217 218 218 218 218 218 218 218 216 214 214 216 216 216 217 219 218 215 216 217 219 222 219 212 209 209 208 209 209 210 214 216 212 209 207 207 210 212 214 216 216 216 216 216 216 216 216 215 214 215 216 217 216 214 215 217 219 223 228 232 235 238 239 240 240 236 233 231 231 230 230 230 230 230 230 230 230 230 230 230 230 231 231
219 216 215 215 215 216 217 218 219 217 215 214 213 212 213 215 216 217 218 217 216 217 217 219 221 218 211 207 207 207 209 210 210 214 217 216 213 210 209 210 212 214 215 215 216 217 215 214 215 216 216 216 216 216 216 216 214 215 219 221 223 228 231 233 236 238 239 240 240 238 235 233 232 232 232 233 233 233 233 232 232 231 230 229 229 230
220 217 216 215 215 215 216 218 218 215 212 213 213 210 209 213 216 217 218 218 217 217 217 218 219 216 210 207 206 206 208 210 210 213 216 216 214 212 210 210 213 215 216 216 218 217 216 214 215 217 218 218 219 219 218 219 218 217 221 224 225 227 230 232 235 237 238 240 242 242 240 237 235 233 233 234 235 236 236 234 233 232 231 229 229 230
220 218 216 215 214 214 215 216 215 211 209 211 213 210 208 211 214 216 217 219 218 217 217 217 218 214 209 206 206 205 208 210 209 211 216 216 214 213 212 211 212 215 217 218 219 219 218 216 217 220 221 222 224 224 222 222 222 219 222 227 228 228 230 232 235 237 238 240 243 243 242 240 237 234 233 234 236 237 237 236 234 232 231 230 229 229
217 216 216 214 212 212 214 215 214 210 208 210 212 210 209 212 214 214 215 217 219 219 217 217 216 212 208 207 206 205 207 208 208 212 217 215 212 213 212 211 212 214 218 221 222 221 221 220 220 221 222 224 226 227 227 227 223 219 223 228 229 229 230 232 235 238 238 241 243 243 242 240 238 235 233 233 235 236 237 236 234 232 230 229 228 227
216 214 215 214 211 211 213 214 213 210 209 210 210 209 209 211 215 214 213 214 217 218 217 216 214 210 207 206 205 204 205 205 207 213 215 211 209 211 211 210 211 214 218 221 222 222 222 223 224 224 223 225 226 226 229 228 221 218 225 230 230 229 229 231 235 237 238 239 242 243 242 240 238 235 233 233 235 236 236 235 233 231 229 228 228 227
218 214 215 215 211 209 212 214 213 210 210 210 210 208 207 209 214 215 213 213 215 216 216 215 212 209 207 206 205 204 203 203 206 210 210 206 207 209 209 209 211 214 215 216 216 217 219 220 223 223 223 224 224 225 227 225 219 220 228 231 230 229 230 232 234 236 236 238 240 242 241 240 238 236 233 233 234 235 235 233 231 230 228 228 228 228
220 219 217 213 210 208 209 213 214 212 210 210 211 210 207 208 212 214 213 214 216 217 217 216 212 209 207 206 205 203 202 202 204 206 206 204 203 205 207 208 209 209 210 210 210 213 216 217 218 218 218 219 220 221 223 221 220 224 230 231 230 229 229 231 234 234 234 236 239 241 242 240 238 236 233 233 234 234 233 231 229 228 227 227 228 228
220 223 220 214 209 206 207 211 213 211 209 209 210 211 208 208 211 213 212 213 216 218 217 215 212 209 207 206 205 203 201 201 202 204 203 200 200 203 205 204 204 205 207 209 210 213 215 214 214 213 213 214 215 216 217 217 220 226 230 230 229 228 229 231 232 232 233 236 239 241 241 239 236 233 230 230 231 230 229 228 227 227 227 228 229 229
217 220 219 214 208 205 206 211 213 210 209 210 210 211 210 207 208 212 212 212 214 216 215 213 210 208 207 207 205 202 201 201 201 202 200 196 197 201 203 202 203 205 208 210 212 213 212 210 209 208 208 208 209 210 211 214 220 226 228 228 227 227 228 230 230 231 234 236 237 239 239 237 234 231 229 228 228 227 226 226 225 225 226 227 228 229
215 216 215 211 206 203 204 208 210 209 210 211 210 210 209 207 206 210 213 213 214 215 214 212 209 207 207 207 205 202 201 200 200 200 197 194 197 201 203 203 203 205 207 209 210 210 208 206 207 206 204 204 205 206 210 215 219 222 223 224 225 225 226 227 228 230 233 235 236 237 237 235 232 229 227 225 224 223 222 223 223 223 224 226 228 229
177 181 195 200 199 200 201 204 207 209 210 211 211 208 206 205 205 207 210 213 214 215 213 210 209 207 207 207 205 202 201 200 200 199 195 193 197 203 205 204 203 203 204 205 205 205 203 203 205 204 202 203 206 208 211 214 216 217 220 222 223 223 224 224 225 229 231 233 234 234 232 230 228 225 223 221 220 219 218 219 220 220 221 222 224 225
167 160 168 180 189 197 201 203 207 208 208 210 210 206 202 202 204 205 207 209 214 216 215 211 209 207 207 206 204 202 202 202 201 198 195 194 198 203 205 204 202 201 201 202 202 202 200 201 203 203 202 203 207 210 212 213 214 217 220 221 221 221 221 222 222 225 227 229 230 230 227 225 223 222 221 219 217 217 217 217 218 218 218 218 219 222
204 186 179 182 191 200 206 208 209 210 209 209 207 202 198 199 202 204 205 207 211 215 215 212 209 207 206 205 204 203 203 203 201 199 196 195 199 203 204 203 201 200 201 204 203 200 199 200 202 204 204 205 207 210 212 214 217 221 222 222 221 220 219 220 220 222 224 226 227 228 226 224 222 220 219 216 215 215 216 216 217 217 217 218 220 222
220 208 198 196 199 206 214 216 214 211 210 208 202 196 195 197 199 200 203 205 208 212 214 212 209 207 205 204 204 204 205 204 202 200 197 196 200 202 202 202 201 200 202 206 206 202 200 202 202 204 207 208 208 210 213 215 218 221 223 224 223 221 220 220 221 222 224 226 228 228 225 222 220 219 217 215 215 215 215 216 217 217 218 221 223 225
222 216 211 208 209 213 220 223 221 214 208 202 196 192 192 195 196 198 201 204 205 209 212 212 210 207 205 203 203 205 205 204 203 201 198 197 200 202 201 201 202 202 202 205 207 205 203 204 204 204 207 209 210 212 214 216 217 218 220 221 221 221 221 222 222 223 225 226 226 225 224 222 221 220 219 218 217 217 216 217 217 218 220 224 226 229
222 220 219 216 215 218 222 226 225 217 205 197 192 190 191 192 194 197 201 203 203 207 211 212 210 207 204 203 204 205 206 205 203 202 200 198 200 202 201 201 202 202 202 204 207 207 206 205 205 205 207 210 212 213 215 216 215 215 216 216 218 219 220 222 224 225 226 227 225 223 222 222 223 223 222 222 222 221 220 220 221 222 224 227 229 232
Height
5843 5845 5849 5854 5858 5860 5860 5862 5863 5863 5866 5870 5872 5874 5876 5878 5880 5881 5882 5883 5885 5886 5888 5890 5890 5890 5892 5894 5895 5894 5894 5897 5900 5902 5904 5906 5907 5908 5908 5908 5909 5909 5910 5911 5912 5913 5914 5914 5915 5916 5918 5919 5921 5922 5924 5925 5926 5928 5929 5931 5933 5934 5936 5937 5939 5940 5941 5942 5943 5944 5945 5946 5947 5947 5948 5949 5950 5951 5952 5952 5953 5954 5954 5954 5955 5955
5839 5841 5848 5853 5854 5854 5856 5858 5859 5860 5863 5866 5868 5871 5873 5874 5877 5879 5878 5880 5882 5884 5886 5887 5888 5889 5890 5892 5893 5893 5893 5896 5899 5901 5903 5904 5905 5906 5907 5907 5907 5908 5910 5911 5912 5912 5913 5914 5914 5916 5917 5919 5920 5921 5923 5924 5925 5927 5929 5930 5932 5934 5935 5937 5938 5939 5941 5942 5942 5943 5944 5945 5946 5947 5948 5950 5951 5952 5952 5953 5953 5954 5954 5955 5956 5956
5834 5839 5847 5850 5848 5849 5852 5854 5855 5857 5860 5862 5864 5867 5869 5871 5873 5875 5875 5877 5880 5882 5884 5885 5886 5887 5888 5889 5891 5892 5893 5896 5898 5899 5901 5902 5904 5905 5906 5906 5906 5907 5909 5910 5910 5911 5912 5913 5914 5915 5916 5918 5919 5920 5921 5923 5924 5926 5928 5930 5932 5933 5935 5936 5937 5939 5940 5941 5942 5944 5945 5946 5947 5948 5949 5950 5951 5952 5953 5953 5954 5954 5955 5955 5956 5957
5831 5837 5844 5843 5842 5845 5848 5850 5851 5853 5856 5857 5859 5862 5865 5867 5869 5872 5873 5874 5876 5879 5881 5882 5883 5885 5885 5886 5888 5890 5893 5894 5895 5897 5899 5901 5903 5905 5904 5904 5905 5906 5907 5908 5909 5910 5911 5912 5913 5914 5915 5916 5918 5920 5921 5923 5924 5926 5927 5929 5931 5932 5934 5936 5937 5938 5940 5941 5943 5944 5945 5947 5948 5949 5950 5950 5951 5952 5953 5953 5954 5955 5955 5956 5957 5958
5827 5833 5838 5835 5836 5842 5844 5845 5847 5849 5852 5854 5856 5859 5862 5863 5866 5870 5869 5868 5872 5875 5877 5879 5880 5882 5883 5884 5886 5889 5892 5892 5893 5895 5897 5900 5902 5903 5904 5905 5906 5906 5906 5907 5907 5908 5909 5911 5911 5912 5914 5915 5917 5919 5920 5922 5923 5925 5926 5927 5929 5931 5933 5935 5936 5938 5939 5941 5943 5945 5946 5947 5949 5950 5950 5951 5951 5952 5953 5953 5954 5955 5955 5956 5957 5958
5822 5828 5831 5828 5831 5838 5839 5840 5843 5845 5848 5851 5853 5856 5859 5860 5861 5865 5864 5865 5870 5871 5874 5877 5876 5878 5881 5882 5884 5887 5889 5890 5892 5894 5896 5898 5900 5902 5904 5906 5906 5907 5907 5907 5907 5908 5909 5910 5910 5911 5912 5914 5915 5917 5919 5920 5921 5923 5925 5926 5928 5929 5931 5933 5935 5937 5939 5941 5943 5945 5946 5947 5948 5949 5950 5950 5951 5951 5953 5954 5954 5955 5956 5956 5957 5958
5817 5822 5825 5823 5827 5832 5832 5835 5838 5841 5844 5846 5849 5853 5854 5855 5857 5860 5861 5862 5866 5868 5871 5871 5870 5875 5878 5879 5882 5884 5886 5888 5890 5892 5894 5895 5897 5900 5903 5904 5905 5906 5907 5907 5907 5908 5908 5909 5910 5911 5911 5913 5914 5915 5917 5919 5920 5922 5923 5925 5927 5928 5930 5932 5934 5937 5939 5941 5943 5944 5945 5946 5947 5948 5948 5949 5950 5952 5953 5954 5955 5956 5956 5956 5957 5958
5812 5817 5820 5819 5823 5826 5827 5831 5835 5837 5840 5842 5845 5847 5848 5850 5853 5856 5858 5858 5861 5865 5865 5863 5865 5871 5873 5875 5879 5880 5882 5885 5887 5890 5891 5893 5895 5898 5901 5902 5904 5905 5906 5906 5906 5907 5907 5908 5909 5910 5910 5911 5912 5913 5915 5917 5919 5921 5923 5925 5926 5928 5929 5931 5933 5936 5938 5941 5942 5944 5945 5946 5946 5947 5948 5949 5951 5952 5953 5954 5955 5956 5956 5957 5957 5958
5805 5811 5815 5815 5817 5821 5824 5827 5831 5833 5835 5838 5839 5840 5844 5848 5850 5852 5853 5853 5857 5859 5858 5858 5863 5866 5868 5872 5875 5875 5878 5881 5884 5887 5889 5891 5894 5896 5898 5900 5902 5904 5905 5905 5905 5905 5906 5907 5907 5908 5909 5910 5911 5912 5914 5916 5918 5920 5922 5923 5925 5927 5928 5930 5933 5935 5937 5940 5941 5943 5944 5945 5946 5947 5948 5949 5951 5952 5953 5954 5955 5956 5957 5957 5957 5958
5798 5805 5808 5808 5810 5815 5819 5823 5826 5828 5831 5834 5834 5836 5842 5844 5845 5847 5847 5848 5851 5849 5850 5856 5859 5860 5864 5869 5871 5872 5875 5879 5882 5885 5887 5889 5892 5894 5896 5898 5900 5902 5903 5904 5904 5904 5905 5906 5906 5907 5908 5909 5910 5911 5913 5914 5916 5918 5920 5922 5924 5926 5928 5930 5932 5934 5936 5938 5940 5942 5943 5944 5945 5947 5948 5949 5951 5952 5953 5954 5955 5956 5957 5957 5958 5959
5791 5798 5800 5801 5804 5809 5813 5817 5819 5822 5826 5829 5829 5833 5837 5838 5839 5841 5842 5844 5843 5839 5844 5852 5854 5855 5858 5863 5866 5869 5873 5877 5880 5883 5885 5887 5889 5891 5893 5895 5897 5900 5902 5903 5903 5903 5903 5904 5906 5907 5908 5908 5909 5911 5912 5914 5916 5918 5920 5922 5923 5925 5927 5929 5931 5934 5936 5937 5939 5941 5942 5943 5945 5946 5948 5949 5950 5951 5953 5954 5955 5956 5957 5957 5958 5959
5784 5791 5795 5797 5799 5803 5807 5810 5813 5816 5821 5823 5823 5828 5831 5832 5834 5836 5837 5838 5834 5833 5841 5849 5851 5850 5852 5859 5864 5866 5870 5874 5877 5881 5884 5885 5887 5889 5890 5893 5896 5898 5901 5901 5901 5902 5902 5904 5905 5906 5907 5908 5909 5911 5912 5914 5915 5917 5919 5921 5923 5925 5927 5929 5930 5933 5935 5936 5938 5939 5941 5942 5944 5946 5947 5949 5950 5951 5952 5953 5954 5955 5956 5957 5958 5959
5777 5785 5790 5790 5791 5796 5800 5804 5808 5811 5815 5817 5818 5822 5826 5827 5828 5830 5832 5832 5830 5833 5840 5846 5848 5844 5846 5856 5860 5862 5866 5869 5874 5878 5881 5882 5884 5886 5887 5890 5893 5896 5898 5899 5900 5901 5902 5904 5905 5905 5906 5907 5908 5910 5911 5913 5915 5916 5918 5920 5922 5924 5926 5928 5929 5931 5933 5935 5937 5938 5939 5942 5944 5945 5946 5947 5949 5950 5951 5952 5954 5955 5956 5957 5958 5958
5772 5778 5782 5782 5783 5789 5795 5799 5803 5806 5810 5812 5813 5817 5820 5821 5822 5825 5829 5830 5830 5832 5836 5843 5844 5839 5843 5852 5855 5857 5862 5866 5872 5875 5876 5878 5880 5882 5885 5887 5890 5893 5895 5897 5899 5900 5902 5903 5904 5904 5905 5906 5907 5908 5909 5911 5913 5915 5917 5919 5921 5923 5925 5926 5928 5930 5932 5934 5935 5936 5938 5941 5943 5944 5945 5946 5948 5949 5951 5952 5953 5954 5956 5957 5958 5959
5765 5769 5773 5775 5778 5783 5790 5795 5798 5802 5805 5806 5809 5813 5814 5816 5819 5823 5827 5829 5829 5830 5832 5837 5839 5836 5840 5847 5851 5856 5861 5865 5868 5870 5872 5874 5877 5880 5882 5883 5886 5890 5893 5895 5897 5899 5900 5902 5903 5903 5903 5904 5906 5907 5908 5910 5911 5913 5916 5917 5919 5921 5923 5925 5927 5929 5930 5932 5933 5935 5937 5939 5941 5943 5944 5945 5947 5948 5950 5951 5953 5954 5955 5956 5958 5959
5758 5762 5765 5767 5771 5777 5784 5788 5791 5794 5797 5801 5803 5805 5808 5813 5818 5821 5824 5826 5826 5827 5827 5829 5832 5834 5837 5843 5851 5856 5859 5862 5864 5866 5868 5871 5875 5877 5879 5880 5884 5888 5891 5893 5895 5897 5899 5900 5901 5901 5902 5903 5904 5906 5908 5909 5911 5912 5914 5915 5917 5919 5921 5923 5925 5927 5929 5930 5932 5934 5936 5938 5940 5941 5943 5944 5946 5947 5949 5950 5952 5953 5954 5956 5957 5958
5753 5755 5756 5761 5767 5770 5775 5780 5784 5788 5793 5796 5797 5799 5805 5812 5816 5818 5820 5822 5822 5822 5823 5823 5826 5832 5836 5841 5849 5854 5857 5860 5861 5863 5866 5868 5872 5874 5876 5879 5882 5885 5888 5891 5893 5895 5897 5899 5900 5901 5901 5902 5903 5905 5906 5908 5909 5910 5912 5913 5915 5917 5919 5921 5923 5925 5927 5928 5930 5932 5934 5937 5939 5940 5942 5943 5944 5946 5948 5949 5951 5952 5954 5955 5957 5958
5748 5749 5752 5758 5761 5761 5767 5773 5777 5782 5787 5790 5791 5797 5804 5807 5809 5811 5814 5817 5817 5817 5820 5820 5822 5829 5834 5840 5847 5851 5855 5858 5860 5862 5865 5866 5869 5871 5874 5877 5880 5883 5886 5889 5891 5893 5895 5897 5898 5900 5900 5901 5902 5903 5904 5906 5907 5909 5910 5912 5913 5915 5917 5919 5921 5923 5925 5927 5929 5931 5933 5935 5937 5939 5940 5941 5943 5945 5946 5948 5950 5951 5953 5954 5956 5957
5743 5745 5748 5751 5752 5754 5761 5766 5770 5774 5779 5783 5787 5792 5797 5798 5801 5803 5806 5810 5812 5813 5815 5816 5817 5823 5830 5838 5843 5847 5852 5856 5858 5860 5863 5865 5867 5869 5872 5875 5878 5882 5884 5886 5889 5890 5893 5894 5896 5898 5899 5899 5900 5901 5902 5904 5905 5907 5909 5910 5912 5914 5915 5916 5918 5920 5923 5925 5927 5929 5931 5934 5936 5937 5939 5940 5942 5944 5945 5947 5948 5950 5952 5953 5955 5956
5738 5740 5742 5743 5744 5748 5753 5757 5761 5767 5773 5777 5780 5783 5786 5790 5794 5798 5802 5807 5809 5810 5812 5814 5814 5818 5826 5835 5839 5843 5850 5853 5855 5858 5860 5863 5864 5866 5870 5874 5877 5879 5881 5884 5886 5888 5891 5892 5894 5896 5898 5898 5899 5900 5901 5902 5904 5906 5907 5909 5911 5912 5913 5914 5916 5918 5921 5923 5925 5927 5929 5932 5934 5936 5937 5939 5941 5943 5944 5945 5947 5948 5950 5952 5953 5955
5731 5733 5736 5737 5737 5742 5747 5750 5757 5764 5768 5772 5773 5775 5778 5783 5789 5793 5797 5802 5805 5806 5809 5810 5812 5815 5824 5832 5836 5840 5847 5850 5852 5855 5857 5859 5861 5864 5868 5871 5874 5877 5879 5881 5884 5886 5889 5890 5892 5894 5896 5896 5897 5898 5899 5900 5902 5904 5905 5907 5909 5911 5912 5914 5916 5918 5919 5921 5923 5925 5928 5930 5932 5934 5936 5938 5940 5941 5943 5944 5946 5947 5949 5950 5952 5953
5722 5725 5729 5730 5731 5737 5742 5745 5750 5754 5758 5762 5766 5770 5774 5779 5784 5786 5790 5796 5800 5801 5803 5806 5809 5813 5819 5828 5833 5837 5843 5847 5849 5851 5854 5856 5858 5861 5865 5868 5871 5874 5876 5879 5881 5884 5886 5888 5890 5892 5893 5894 5894 5896 5897 5899 5900 5902 5904 5906 5908 5910 5912 5913 5915 5917 5919 5920 5922 5924 5926 5928 5930 5931 5933 5936 5938 5940 5942 5943 5945 5946 5948 5949 5951 5952
5715 5719 5723 5725 5727 5732 5735 5737 5741 5745 5749 5754 5759 5764 5770 5774 5778 5781 5786 5792 5795 5797 5799 5801 5804 5809 5816 5824 5829 5833 5839 5843 5845 5847 5850 5853 5856 5860 5863 5866 5869 5871 5873 5876 5878 5881 5883 5885 5887 5888 5890 5892 5893 5895 5896 5898 5899 5901 5902 5904 5906 5908 5911 5912 5914 5915 5917 5919 5921 5923 5925 5926 5928 5930 5931 5934 5936 5938 5940 5942 5943 5944 5946 5948 5949 5950
5709 5713 5716 5721 5723 5726 5729 5732 5735 5740 5744 5749 5754 5759 5762 5766 5771 5775 5779 5784 5788 5792 5796 5797 5799 5805 5813 5820 5826 5831 5835 5839 5841 5844 5847 5850 5853 5857 5860 5863 5866 5868 5871 5873 5875 5878 5880 5882 5883 5885 5887 5890 5892 5893 5894 5896 5898 5899 5900 5902 5904 5907 5908 5910 5912 5913 5915 5918 5919 5920 5922 5925 5927 5928 5930 5932 5934 5936 5938 5939 5941 5943 5945 5946 5947 5949
5702 5706 5709 5714 5717 5720 5724 5727 5728 5732 5736 5742 5749 5752 5753 5757 5762 5766 5771 5776 5781 5786 5790 5792 5795 5801 5810 5817 5823 5828 5831 5834 5838 5841 5844 5847 5849 5852 5855 5859 5862 5865 5868 5870 5872 5874 5876 5878 5880 5883 5886 5888 5890 5891 5892 5894 5896 5897 5899 5901 5903 5905 5906 5908 5910 5912 5914 5916 5917 5919 5921 5923 5925 5927 5929 5931 5932 5934 5935 5937 5939 5941 5943 5944 5946 5947
5694 5696 5700 5706 5709 5714 5717 5718 5721 5726 5730 5736 5742 5743 5746 5751 5755 5761 5768 5772 5775 5780 5784 5787 5791 5798 5806 5813 5819 5825 5827 5830 5835 5838 5841 5845 5847 5850 5853 5855 5859 5862 5864 5866 5868 5870 5872 5874 5877 5880 5883 5886 5887 5889 5890 5892 5894 5896 5897 5899 5901 5903 5904 5906 5908 5910 5911 5913 5915 5917 5920 5922 5924 5926 5927 5929 5930 5932 5933 5935 5937 5939 5940 5942 5944 5945
5684 5687 5693 5698 5702 5707 5709 5710 5713 5718 5723 5728 5731 5733 5739 5746 5750 5756 5761 5764 5770 5777 5779 5782 5787 5793 5801 5808 5815 5821 5823 5826 5831 5835 5838 5841 5844 5847 5850 5852 5855 5858 5860 5862 5864 5866 5868 5870 5874 5877 5880 5883 5885 5886 5888 5889 5891 5893 5895 5897 5899 5900 5902 5903 5905 5907 5909 5911 5913 5916 5918 5920 5922 5923 5925 5927 5928 5930 5932 5933 5935 5936 5938 5940 5941 5943
5676 5680 5687 5691 5695 5700 5702 5704 5707 5711 5715 5720 5722 5725 5732 5739 5744 5749 5753 5758 5764 5769 5772 5777 5781 5786 5796 5804 5810 5815 5817 5820 5824 5827 5830 5834 5837 5841 5844 5847 5850 5852 5855 5857 5859 5861 5864 5867 5870 5874 5877 5880 5881 5883 5885 5887 5888 5890 5893 5895 5896 5898 5900 5902 5904 5905 5907 5908 5911 5914 5916 5917 5919 5920 5922 5924 5926 5928 5930 5932 5933 5934 5936 5937 5939 5941
5668 5674 5679 5682 5687 5691 5694 5698 5701 5705 5710 5713 5716 5721 5727 5733 5738 5742 5747 5753 5757 5759 5767 5773 5773 5779 5793 5801 5804 5809 5812 5815 5819 5821 5825 5828 5832 5836 5840 5843 5846 5849 5851 5854 5856 5859 5861 5864 5866 5870 5873 5876 5877 5879 5882 5884 5885 5887 5890 5892 5894 5896 5898 5900 5902 5903 5905 5907 5909 5912 5913 5914 5916 5918 5919 5921 5923 5926 5928 5930 5931 5932 5934 5936 5937 5939
5663 5668 5672 5674 5678 5683 5688 5693 5696 5699 5704 5707 5711 5717 5722 5727 5732 5737 5741 5745 5749 5753 5762 5767 5766 5774 5789 5795 5798 5806 5810 5813 5817 5819 5822 5825 5828 5832 5836 5839 5842 5845 5848 5851 5853 5856 5859 5861 5863 5866 5869 5872 5873 5876 5878 5880 5883 5885 5887 5890 5892 5894 5896 5898 5900 5901 5903 5905 5908 5909 5910 5911 5913 5915 5916 5919 5921 5923 5925 5927 5929 5930 5932 5934 5935 5936
5657 5661 5663 5666 5670 5677 5683 5688 5690 5694 5698 5702 5706 5710 5715 5720 5726 5731 5735 5740 5744 5749 5756 5761 5762 5770 5784 5790 5795 5803 5807 5809 5813 5816 5819 5823 5825 5829 5832 5834 5838 5840 5843 5846 5849 5852 5855 5857 5860 5863 5866 5868 5870 5873 5875 5877 5880 5882 5885 5887 5889 5891 5893 5895 5897 5899 5901 5903 5905 5906 5907 5909 5910 5912 5914 5916 5918 5920 5922 5924 5926 5928 5930 5931 5933 5934
5652 5655 5657 5660 5664 5672 5679 5682 5685 5689 5692 5695 5699 5703 5708 5714 5720 5726 5731 5735 5740 5744 5750 5756 5758 5766 5780 5788 5792 5798 5801 5804 5808 5811 5814 5818 5821 5825 5828 5831 5834 5836 5839 5842 5844 5847 5850 5853 5856 5859 5862 5865 5867 5870 5872 5875 5877 5879 5881 5884 5887 5888 5890 5892 5895 5897 5898 5900 5901 5903 5904 5906 5908 5910 5911 5913 5916 5917 5919 5921 5923 5925 5927 5929 5930 5932
5649 5651 5653 5656 5659 5666 5672 5675 5679 5684 5685 5686 5692 5699 5705 5710 5716 5723 5727 5730 5735 5740 5746 5751 5753 5762 5777 5784 5789 5794 5797 5800 5804 5806 5810 5814 5817 5821 5824 5827 5830 5833 5836 5838 5841 5844 5847 5850 5852 5856 5859 5862 5864 5867 5870 5872 5875 5877 5880 5882 5884 5885 5887 5889 5891 5893 5895 5897 5899 5901 5902 5903 5905 5907 5909 5911 5913 5914 5916 5918 5920 5923 5924 5926 5927 5929
5645 5648 5650 5652 5655 5660 5664 5669 5673 5676 5676 5682 5692 5700 5703 5707 5713 5719 5721 5724 5730 5736 5741 5746 5748 5758 5771 5779 5785 5790 5793 5796 5800 5803 5806 5810 5813 5816 5820 5823 5826 5829 5832 5835 5838 5841 5844 5847 5849 5853 5857 5859 5862 5865 5867 5869 5872 5874 5876 5878 5880 5882 5884 5886 5888 5890 5892 5894 5897 5898 5900 5901 5903 5905 5907 5909 5910 5912 5913 5916 5918 5920 5921 5923 5924 5926
5642 5645 5647 5649 5652 5655 5659 5663 5666 5667 5673 5684 5694 5699 5702 5705 5710 5712 5713 5717 5724 5730 5736 5740 5744 5753 5767 5776 5781 5787 5790 5793 5797 5799 5802 5805 5809 5812 5815 5818 5821 5824 5828 5832 5835 5837 5840 5843 5847 5851 5854 5857 5860 5862 5863 5865 5868 5870 5872 5874 5877 5879 5881 5883 5885 5887 5889 5891 5894 5895 5897 5899 5901 5903 5904 5906 5907 5909 5912 5913 5915 5917 5918 5920 5922 5924
5639 5642 5644 5646 5648 5652 5655 5658 5661 5667 5677 5685 5690 5693 5698 5701 5702 5702 5705 5712 5720 5726 5731 5735 5740 5750 5763 5771 5776 5782 5786 5789 5793 5796 5798 5800 5803 5806 5810 5814 5818 5821 5824 5828 5830 5833 5837 5841 5845 5849 5852 5855 5856 5858 5861 5863 5865 5867 5869 5872 5874 5876 5878 5880 5881 5883 5886 5888 5891 5893 5895 5897 5899 5900 5902 5903 5905 5907 5910 5911 5913 5914 5915 5917 5919 5921
5636 5638 5641 5643 5645 5649 5652 5655 5660 5668 5675 5679 5681 5685 5691 5693 5693 5697 5702 5709 5716 5721 5727 5732 5737 5747 5759 5766 5772 5777 5781 5785 5789 5792 5792 5793 5797 5802 5807 5811 5814 5818 5821 5824 5826 5830 5834 5839 5843 5846 5849 5851 5852 5855 5859 5861 5863 5865 5866 5868 5871 5873 5875 5877 5878 5880 5883 5886 5888 5890 5892 5894 5896 5898 5899 5901 5903 5905 5907 5909 5910 5911 5912 5914 5916 5918
5632 5635 5638 5640 5642 5646 5648 5652 5657 5662 5667 5671 5674 5679 5684 5686 5689 5695 5700 5706 5712 5718 5723 5728 5734 5744 5755 5762 5767 5773 5776 5780 5784 5785 5786 5790 5797 5801 5805 5808 5811 5815 5818 5820 5823 5827 5831 5836 5840 5843 5846 5848 5850 5853 5856 5858 5860 5862 5863 5865 5868 5870 5872 5874 5876 5878 5881 5884 5885 5887 5889 5891 5893 5895 5896 5898 5901 5903 5904 5905 5907 5908 5910 5912 5914 5916
5627 5630 5633 5635 5638 5641 5645 5649 5653 5659 5664 5668 5671 5675 5680 5683 5687 5692 5697 5702 5708 5714 5719 5725 5732 5742 5751 5757 5763 5768 5772 5776 5779 5780 5783 5790 5795 5798 5801 5805 5808 5811 5814 5817 5820 5824 5829 5833 5836 5839 5842 5845 5847 5850 5852 5855 5858 5859 5860 5862 5865 5867 5870 5872 5874 5876 5879 5881 5882 5884 5886 5888 5890 5891 5893 5896 5898 5899 5901 5902 5903 5905 5907 5909 5911 5913
5623 5626 5629 5631 5634 5638 5642 5646 5650 5655 5660 5663 5666 5672 5677 5680 5684 5688 5692 5697 5704 5710 5716 5723 5730 5739 5746 5752 5759 5764 5768 5772 5776 5778 5782 5788 5791 5794 5797 5801 5803 5807 5810 5814 5818 5822 5825 5828 5831 5835 5838 5842 5844 5847 5849 5852 5855 5856 5857 5859 5862 5865 5868 5870 5872 5874 5876 5877 5879 5881 5883 5885 5887 5889 5891 5893 5895 5896 5897 5899 5900 5902 5904 5907 5909 5910
5620 5622 5625 5627 5631 5636 5639 5643 5647 5651 5654 5658 5662 5667 5672 5676 5679 5681 5686 5693 5701 5707 5712 5720 5728 5735 5741 5748 5755 5760 5765 5769 5772 5775 5779 5784 5787 5791 5794 5797 5800 5803 5807 5811 5815 5818 5820 5823 5826 5830 5834 5837 5840 5843 5845 5848 5851 5852 5854 5857 5860 5863 5866 5868 5869 5871 5873 5874 5876 5879 5881 5883 5884 5886 5888 5890 5891 5892 5894 5895 5897 5900 5902 5904 5906 5908
5617 5619 5621 5624 5629 5633 5637 5640 5643 5647 5651 5656 5661 5665 5668 5671 5674 5677 5683 5691 5698 5703 5710 5717 5725 5731 5737 5743 5750 5756 5761 5765 5768 5772 5776 5781 5785 5788 5791 5794 5797 5801 5804 5808 5811 5813 5816 5819 5822 5825 5829 5832 5835 5838 5841 5844 5847 5849 5852 5855 5859 5862 5863 5864 5866 5868 5870 5872 5874 5876 5878 5880 5882 5884 5885 5887 5888 5890 5891 5893 5895 5897 5899 5901 5904 5906
5615 5617 5618 5622 5626 5630 5633 5635 5639 5644 5650 5654 5658 5661 5664 5666 5670 5676 5682 5688 5694 5700 5707 5714 5721 5727 5732 5739 5746 5752 5757 5761 5764 5769 5773 5778 5782 5785 5788 5791 5795 5798 5801 5804 5807 5809 5812 5815 5818 5821 5824 5827 5830 5833 5836 5840 5843 5846 5850 5854 5857 5858 5859 5861 5863 5865 5868 5870 5872 5874 5876 5878 5879 5881 5882 5884 5886 5887 5889 5891 5893 5895 5897 5899 5901 5904
5613 5614 5616 5620 5624 5627 5631 5634 5639 5644 5647 5650 5653 5657 5660 5664 5669 5674 5680 5685 5691 5697 5704 5712 5718 5723 5728 5734 5741 5747 5752 5757 5761 5766 5770 5775 5779 5782 5785 5789 5792 5795 5798 5801 5804 5806 5808 5811 5814 5816 5819 5822 5825 5829 5833 5837 5841 5845 5849 5851 5853 5854 5856 5858 5861 5863 5866 5868 5870 5872 5873 5875 5876 5878 5879 5881 5883 5885 5887 5888 5891 5893 5895 5897 5899 5901
5612 5613 5616 5619 5622 5625 5629 5633 5637 5640 5643 5646 5650 5653 5657 5662 5667 5671 5676 5682 5688 5694 5701 5709 5714 5719 5724 5730 5737 5743 5748 5753 5758 5763 5767 5772 5776 5779 5782 5786 5789 5792 5795 5798 5801 5803 5805 5807 5810 5812 5815 5818 5822 5826 5831 5835 5839 5843 5845 5847 5849 5851 5854 5856 5859 5861 5863 5865 5867 5869 5870 5872 5873 5875 5877 5879 5880 5882 5884 5886 5888 5891 5893 5894 5896 5898
5612 5614 5616 5618 5621 5624 5627 5630 5633 5636 5639 5643 5647 5650 5654 5658 5663 5667 5672 5679 5685 5691 5698 5705 5711 5716 5721 5727 5734 5741 5746 5750 5755 5759 5764 5769 5773 5776 5780 5783 5786 5789 5792 5795 5798 5800 5802 5805 5807 5810 5813 5816 5820 5824 5829 5833 5836 5839 5841 5844 5846 5848 5851 5853 5856 5859 5860 5862 5864 5866 5867 5869 5871 5872 5874 5876 5878 5880 5882 5884 5886 5888 5890 5892 5894 5896
5614 5615 5616 5618 5620 5622 5624 5626 5629 5632 5636 5639 5643 5647 5650 5654 5658 5663 5670 5677 5683 5688 5696 5703 5708 5713 5719 5725 5732 5738 5743 5747 5752 5756 5761 5766 5770 5773 5777 5780 5783 5786 5789 5793 5795 5797 5800 5803 5805 5808 5811 5815 5818 5822 5826 5829 5832 5835 5838 5840 5843 5845 5848 5851 5853 5855 5857 5859 5860 5862 5864 5866 5868 5869 5871 5873 5875 5877 5879 5881 5883 5885 5887 5889 5891 5893
5615 5616 5617 5618 5620 5621 5622 5624 5627 5630 5634 5637 5639 5643 5646 5651 5656 5661 5668 5675 5681 5686 5693 5700 5706 5711 5717 5723 5729 5734 5739 5744 5749 5753 5758 5763 5767 5770 5774 5777 5780 5783 5786 5789 5792 5795 5798 5801 5803 5806 5809 5812 5816 5820 5823 5827 5830 5832 5835 5837 5839 5842 5845 5848 5850 5852 5853 5855 5857 5859 5861 5863 5865 5867 5869 5871 5873 5875 5877 5879 5881 5883 5885 5887 5889 5890
5616 5617 5617 5618 5619 5620 5621 5622 5625 5628 5631 5633 5636 5639 5644 5649 5654 5660 5666 5673 5679 5685 5690 5697 5702 5708 5714 5720 5725 5731 5736 5741 5745 5750 5754 5759 5763 5767 5770 5773 5776 5780 5783 5786 5790 5793 5796 5798 5801 5804 5807 5810 5814 5817 5821 5824 5827 5829 5832 5834 5837 5840 5843 5845 5847 5848 5850 5852 5854 5856 5858 5860 5862 5864 5866 5868 5870 5872 5874 5876 5878 5881 5882 5884 5885 5887
5616 5616 5617 5617 5618 5619 5620 5621 5623 5625 5628 5630 5634 5638 5643 5647 5653 5658 5664 5670 5677 5682 5687 5693 5699 5705 5711 5716 5721 5726 5732 5737 5741 5746 5750 5754 5759 5762 5766 5769 5773 5776 5780 5783 5787 5790 5793 5796 5799 5802 5805 5808 5812 5815 5818 5821 5824 5827 5829 5831 5834 5836 5838 5841 5843 5845 5847 5849 5851 5853 5855 5857 5859 5861 5863 5865 5867 5869 5871 5873 5875 5877 5879 5880 5882 5884
5615 5616 5616 5617 5617 5618 5619 5620 5622 5624 5626 5629 5633 5637 5641 5646 5651 5657 5662 5668 5674 5680 5685 5690 5696 5702 5708 5713 5717 5721 5727 5732 5736 5741 5745 5749 5754 5758 5761 5766 5770 5773 5776 5780 5784 5787 5790 5793 5796 5800 5803 5806 5809 5812 5815 5819 5821 5824 5826 5828 5830 5832 5834 5837 5840 5842 5844 5846 5847 5849 5851 5853 5855 5857 5859 5861 5864 5866 5868 5870 5872 5874 5875 5877 5879 5880